#timestamp,LO_Frequency,Hit 
1504346415.3,286047000.9,N
1504346435.2,286046999.0,N
1504346455.9,286046998.9,N
1504346475.7,286047004.4,N
1504346495.6,286047002.1,N
1504346515.4,286046999.9,N
1504346535.2,286047000.6,N
1504346555.1,286046999.9,N
1504346556.0,286046999.9,N
1504346575.8,286047002.5,N
1504346595.6,286047004.3,N
1504346615.5,286046998.6,N
1504346635.3,286047001.1,N
1504346655.1,286046998.6,N
1504346675.9,286046998.6,N
1504346695.7,286047000.5,N
1504346715.5,286046999.8,N
1504346735.4,286047000.3,N
1504346755.2,286046999.8,N
1504346775.0,286047001.9,N
1504346775.9,286047001.9,N
1504346795.8,286046998.8,N
1504346815.6,286046998.9,N
1504346835.4,286046999.3,N
1504346855.2,286046998.1,N
1504346875.1,286047000.5,N
1504346876.0,286047000.5,N
1504346895.8,286047001.7,N
1504346915.6,286047004.3,N
1504346935.5,286047002.1,N
1504346955.3,286047002.4,N
1504346975.1,286047001.9,N
1504346995.9,286047000.1,N
1504347015.7,286047003.9,N
1504347035.5,286047001.6,N
1504347055.4,286047002.0,N
1504347075.2,286047002.3,N
1504347095.0,286046999.6,N
1504347095.9,286046999.6,N
1504347115.8,286046996.8,N
1504347135.6,286046995.5,N
1504347155.4,286046996.8,N
1504347175.3,286046997.5,N
1504347195.1,286046997.7,N
1504347196.0,286046997.7,N
1504347215.8,286046995.7,N
1504347235.7,286046993.7,N
1504347255.5,286046995.4,N
1504347275.3,286046995.0,N
1504347295.2,286046994.9,N
1504347315.9,286046998.9,N
1504347335.7,286047001.7,N
1504347355.5,286046999.9,N
1504347375.4,286046997.1,N
1504347395.2,286046995.3,N
1504347415.0,286046996.9,N
1504347415.9,286046996.9,N
1504347435.8,286046996.6,N
1504347455.6,286046991.7,N
1504347475.4,286046995.9,N
1504347495.3,286046995.6,N
1504347515.1,286046994.8,N
1504347535.8,286046993.9,N
1504347555.7,286046994.4,N
1504347575.5,286046993.7,N
1504347595.3,286046996.8,N
1504347615.2,286046999.6,N
1504347635.9,286046995.8,N
1504347655.7,286046993.9,N
1504347675.6,286046997.3,N
1504347695.4,286046998.6,N
1504347715.2,286046999.2,N
1504347735.1,286046999.0,N
1504347736.0,286046999.0,N
1504347755.8,286046998.7,N
1504347775.6,286046995.8,N
1504347795.5,286046995.9,N
1504347815.3,286046996.7,N
1504347835.1,286046995.8,N
1504347855.9,286046993.5,N
1504347875.7,286046999.1,N
1504347895.5,286047000.3,N
1504347915.4,286046999.2,N
1504347935.2,286047001.1,N
1504347955.0,286046999.1,N
1504347955.9,286046999.1,N
1504347975.8,286046995.1,N
1504347995.6,286046993.3,N
1504348015.4,286046994.2,N
1504348035.2,286046993.7,N
1504348055.1,286046995.9,N
1504348056.0,286046995.9,N
1504348075.8,286046996.9,N
1504348095.6,286046996.7,N
1504348115.5,286046994.3,N
1504348135.3,286046996.1,N
1504348155.1,286046994.7,N
1504348175.9,286046993.3,P
1504348195.7,286046998.6,N
1504348215.5,286046997.2,N
1504348235.4,286046999.6,N
1504348255.2,286046998.4,N
1504348275.0,286047000.9,N
1504348275.9,286047000.9,N
1504348295.8,286047002.4,N
1504348315.6,286047004.0,N
1504348335.4,286047002.4,N
1504348355.3,286047001.5,N
1504348375.1,286047002.2,N
1504348395.8,286046998.4,N
1504348415.7,286046996.9,N
1504348435.5,286047000.0,N
1504348455.3,286047000.6,N
1504348475.2,286047001.3,N
1504348495.9,286047004.0,N
1504348515.7,286046999.8,N
1504348535.6,286047001.1,N
1504348555.4,286047001.5,N
1504348575.2,286047002.2,N
1504348595.0,286047000.1,N
1504348596.0,286047000.1,N
1504348615.8,286047004.0,N
1504348635.6,286047003.1,N
1504348655.4,286047002.6,N
1504348675.3,286046998.3,N
1504348695.1,286047001.7,N
1504348715.8,286047005.1,N
1504348735.7,286047009.0,P
1504348755.5,286047005.2,N
1504348775.3,286047004.5,N
1504348795.2,286047005.0,N
1504348815.9,286047003.2,N
1504348835.7,286047002.0,N
1504348855.6,286047005.6,N
1504348875.4,286047002.1,N
1504348895.2,286046998.5,N
1504348915.1,286046999.1,N
1504348916.0,286046999.1,N
1504348935.8,286047002.4,N
1504348955.6,286047002.4,N
1504348975.5,286046999.8,N
1504348995.3,286047000.1,N
1504349015.1,286047003.9,N
1504349035.8,286047001.3,N
1504349055.7,286047000.1,N
1504349075.5,286047001.8,N
1504349095.3,286047000.4,N
1504349115.2,286047000.2,N
1504349135.9,286047000.7,N
1504349155.7,286047001.0,N
1504349175.6,286046999.0,N
1504349195.4,286047001.0,N
1504349215.2,286046997.7,N
1504349235.1,286046996.9,N
1504349236.0,286046996.9,N
1504349255.8,286046997.1,N
1504349275.6,286046997.1,N
1504349295.5,286046997.8,N
1504349315.3,286046999.5,N
1504349335.1,286047001.2,N
1504349355.8,286047000.4,N
1504349375.7,286046996.7,N
1504349395.5,286046996.6,N
1504349415.3,286047000.8,N
1504349435.2,286046999.2,N
1504349455.0,286047000.3,N
1504349455.9,286047000.3,N
1504349475.7,286046996.6,N
1504349495.6,286046995.4,N
1504349515.4,286047000.8,N
1504349535.2,286047001.2,N
1504349555.1,286046998.5,N
1504349556.0,286046998.5,N
1504349575.8,286046999.8,N
1504349595.6,286047004.3,N
1504349615.5,286047000.9,N
1504349635.3,286047001.0,N
1504349655.1,286046998.5,N
1504349675.9,286047002.1,N
1504349695.7,286047002.6,N
1504349715.5,286047004.1,N
1504349735.4,286047000.2,N
1504349755.2,286046999.6,N
1504349775.0,286047000.5,N
1504349775.9,286047000.5,N
1504349795.8,286047001.3,N
1504349815.6,286047001.8,N
1504349835.4,286047002.4,N
1504349855.2,286047000.4,N
1504349875.1,286047002.1,N
1504349876.0,286047002.1,N
1504349895.8,286047002.6,N
1504349915.6,286047000.4,N
1504349935.5,286047001.2,N
1504349955.3,286046999.3,N
1504349975.1,286047000.3,N
1504349995.9,286046997.6,N
